Year,Month,Day,Hour,Minute,Value (Times are PST for temperature in C)
2010,06,13,07,54,13.60
2010,06,13,07,55,13.60
2010,06,13,07,56,13.60
2010,06,13,07,57,13.60
2010,06,13,07,58,13.60
2010,06,13,07,59,13.60
2010,06,13,08,00,13.60
2010,06,13,08,01,13.60
2010,06,13,08,02,13.60
2010,06,13,08,03,13.60
2010,06,13,08,04,13.60
2010,06,13,08,05,13.70
2010,06,13,08,06,13.70
2010,06,13,08,07,13.80
2010,06,13,08,08,13.90
2010,06,13,08,09,13.90
2010,06,13,08,10,13.90
2010,06,13,08,11,14.00
2010,06,13,08,12,14.00
2010,06,13,08,13,14.10
2010,06,13,08,14,14.10
2010,06,13,08,15,14.10
2010,06,13,08,16,14.20
2010,06,13,08,17,14.20
2010,06,13,08,18,14.20
2010,06,13,08,19,14.20
2010,06,13,08,20,14.20
2010,06,13,08,21,14.20
2010,06,13,08,22,14.20
2010,06,13,08,23,14.20
2010,06,13,08,24,14.20
2010,06,13,08,25,14.30
2010,06,13,08,26,14.30
2010,06,13,08,27,14.30
2010,06,13,08,28,14.30
2010,06,13,08,29,14.30
2010,06,13,08,30,14.30
2010,06,13,08,31,14.30
2010,06,13,08,32,14.30
2010,06,13,08,33,14.30
2010,06,13,08,34,14.30
2010,06,13,08,35,14.30
2010,06,13,08,36,14.30
2010,06,13,08,37,14.40
2010,06,13,08,38,14.50
2010,06,13,08,39,14.50
2010,06,13,08,40,14.60
2010,06,13,08,41,14.70
2010,06,13,08,42,14.80
2010,06,13,08,43,14.80
2010,06,13,08,44,14.80
2010,06,13,08,45,14.80
2010,06,13,08,46,14.80
2010,06,13,08,47,14.80
2010,06,13,08,48,14.80
2010,06,13,08,49,14.90
2010,06,13,08,50,15.00
2010,06,13,08,51,15.00
2010,06,13,08,52,15.00
2010,06,13,08,53,15.00
2010,06,13,08,54,15.00
2010,06,13,08,55,15.00
2010,06,13,08,56,15.00
2010,06,13,08,57,14.90
2010,06,13,08,58,14.90
2010,06,13,08,59,14.90
2010,06,13,09,00,14.90
2010,06,13,09,01,14.90
2010,06,13,09,02,14.90
2010,06,13,09,03,14.90
2010,06,13,09,04,15.00
2010,06,13,09,05,14.90
2010,06,13,09,06,14.90
2010,06,13,09,07,14.90
2010,06,13,09,08,14.80
2010,06,13,09,09,14.80
2010,06,13,09,10,14.70
2010,06,13,09,11,14.80
2010,06,13,09,12,14.80
2010,06,13,09,13,14.70
2010,06,13,09,14,14.70
2010,06,13,09,15,14.70
2010,06,13,09,16,14.80
2010,06,13,09,17,14.80
2010,06,13,09,18,14.90
2010,06,13,09,19,14.90
2010,06,13,09,20,14.90
2010,06,13,09,21,14.80
2010,06,13,09,22,14.90
2010,06,13,09,23,15.00
2010,06,13,09,24,15.00
2010,06,13,09,25,15.00
2010,06,13,09,26,15.00
2010,06,13,09,27,15.00
2010,06,13,09,28,15.00
2010,06,13,09,29,15.00
2010,06,13,09,30,15.00
2010,06,13,09,31,15.00
2010,06,13,09,32,15.00
2010,06,13,09,33,15.00
2010,06,13,09,34,15.00
2010,06,13,09,35,15.00
2010,06,13,09,36,15.00
2010,06,13,09,37,15.00
2010,06,13,09,38,15.00
2010,06,13,09,39,15.00
2010,06,13,09,40,14.90
2010,06,13,09,41,14.80
2010,06,13,09,42,14.80
2010,06,13,09,43,14.70
2010,06,13,09,44,14.50
2010,06,13,09,45,14.50
2010,06,13,09,46,14.50
2010,06,13,09,47,14.50
2010,06,13,09,48,14.60
2010,06,13,09,49,14.60
2010,06,13,09,50,14.50
2010,06,13,09,51,14.40
2010,06,13,09,52,14.40
2010,06,13,09,53,14.30
2010,06,13,09,54,14.40
2010,06,13,09,55,14.40
2010,06,13,09,56,14.50
2010,06,13,09,57,14.60
2010,06,13,09,58,14.60
2010,06,13,09,59,14.60
2010,06,13,10,00,14.70
2010,06,13,10,01,14.70
2010,06,13,10,02,14.70
2010,06,13,10,03,14.60
2010,06,13,10,04,14.60
2010,06,13,10,05,14.70
2010,06,13,10,06,14.70
2010,06,13,10,07,14.80
2010,06,13,10,08,14.90
2010,06,13,10,09,15.00
2010,06,13,10,10,15.00
2010,06,13,10,11,15.00
2010,06,13,10,12,14.90
2010,06,13,10,13,14.90
2010,06,13,10,14,14.80
2010,06,13,10,15,14.80
2010,06,13,10,16,14.80
2010,06,13,10,17,14.70
2010,06,13,10,18,14.70
2010,06,13,10,19,14.70
2010,06,13,10,20,14.70
2010,06,13,10,21,14.70
2010,06,13,10,22,14.60
2010,06,13,10,23,14.60
2010,06,13,10,24,14.60
2010,06,13,10,25,14.60
2010,06,13,10,26,14.60
2010,06,13,10,27,14.70
2010,06,13,10,28,14.70
2010,06,13,10,29,14.80
2010,06,13,10,30,14.80
2010,06,13,10,31,14.80
2010,06,13,10,32,14.90
2010,06,13,10,33,15.00
2010,06,13,10,34,14.90
2010,06,13,10,35,14.80
2010,06,13,10,36,14.70
2010,06,13,10,37,14.80
2010,06,13,10,38,14.80
2010,06,13,10,39,14.90
2010,06,13,10,40,15.00
2010,06,13,10,41,15.00
2010,06,13,10,42,15.00
2010,06,13,10,43,15.00
2010,06,13,10,44,15.00
2010,06,13,10,45,15.00
2010,06,13,10,46,15.00
2010,06,13,10,47,15.00
2010,06,13,10,48,15.00
2010,06,13,10,49,15.00
2010,06,13,10,50,15.00
2010,06,13,10,51,15.00
2010,06,13,10,52,15.00
2010,06,13,10,53,15.00
2010,06,13,10,54,15.00
2010,06,13,10,55,15.00
2010,06,13,10,56,15.00
2010,06,13,10,57,15.00
2010,06,13,10,58,15.00
2010,06,13,10,59,15.00
2010,06,13,11,00,15.00
2010,06,13,11,01,15.00
2010,06,13,11,02,15.00
2010,06,13,11,03,15.00
2010,06,13,11,04,15.00
2010,06,13,11,05,15.00
2010,06,13,11,06,15.00
2010,06,13,11,07,15.00
2010,06,13,11,08,15.00
2010,06,13,11,09,15.00
2010,06,13,11,10,14.90
2010,06,13,11,11,14.90
2010,06,13,11,12,14.90
2010,06,13,11,13,14.80
2010,06,13,11,14,14.90
2010,06,13,11,15,14.90
2010,06,13,11,16,14.90
2010,06,13,11,17,14.90
2010,06,13,11,18,14.90
2010,06,13,11,19,15.00
2010,06,13,11,20,15.00
2010,06,13,11,21,15.00
2010,06,13,11,22,15.00
2010,06,13,11,23,15.00
2010,06,13,11,24,15.00
2010,06,13,11,25,15.00
2010,06,13,11,26,15.00
2010,06,13,11,27,14.90
2010,06,13,11,28,14.90
2010,06,13,11,29,14.90
2010,06,13,11,30,15.00
2010,06,13,11,31,15.00
2010,06,13,11,32,15.00
2010,06,13,11,33,15.00
2010,06,13,11,34,15.00
2010,06,13,11,35,15.00
2010,06,13,11,36,15.00
2010,06,13,11,37,15.10
2010,06,13,11,38,15.10
2010,06,13,11,39,15.00
2010,06,13,11,40,15.00
2010,06,13,11,41,15.00
2010,06,13,11,42,15.00
2010,06,13,11,43,15.00
2010,06,13,11,44,15.00
2010,06,13,11,45,15.00
2010,06,13,11,46,15.00
2010,06,13,11,47,15.00
2010,06,13,11,48,15.00
2010,06,13,11,49,15.00
2010,06,13,11,50,15.00
2010,06,13,11,51,15.00
2010,06,13,11,52,15.10
2010,06,13,11,53,15.20
2010,06,13,11,54,15.30
2010,06,13,11,55,15.30
2010,06,13,11,56,15.40
2010,06,13,11,57,15.40
2010,06,13,11,58,15.30
2010,06,13,11,59,15.30
2010,06,13,12,00,15.20
2010,06,13,12,01,15.10
2010,06,13,12,02,15.10
2010,06,13,12,03,15.10
2010,06,13,12,04,15.10
2010,06,13,12,05,15.10
2010,06,13,12,06,15.20
2010,06,13,12,07,15.20
2010,06,13,12,08,15.20
2010,06,13,12,09,15.20
2010,06,13,12,10,15.20
2010,06,13,12,11,15.20
2010,06,13,12,12,15.20
2010,06,13,12,13,15.30
2010,06,13,12,14,15.40
2010,06,13,12,15,15.40
2010,06,13,12,16,15.40
2010,06,13,12,17,15.40
2010,06,13,12,18,15.40
2010,06,13,12,19,15.50
2010,06,13,12,20,15.50
2010,06,13,12,21,15.60
2010,06,13,12,22,15.60
2010,06,13,12,23,15.60
2010,06,13,12,24,15.70
2010,06,13,12,25,15.70
2010,06,13,12,26,15.80
2010,06,13,12,27,15.80
2010,06,13,12,28,15.80
2010,06,13,12,29,15.90
2010,06,13,12,30,15.90
2010,06,13,12,31,15.90
2010,06,13,12,32,15.90
2010,06,13,12,33,15.90
2010,06,13,12,34,15.90
2010,06,13,12,35,15.90
2010,06,13,12,36,15.90
2010,06,13,12,37,16.00
2010,06,13,12,38,16.10
2010,06,13,12,39,16.10
2010,06,13,12,40,16.10
2010,06,13,12,41,16.10
2010,06,13,12,42,16.10
2010,06,13,12,43,16.00
2010,06,13,12,44,16.00
2010,06,13,12,45,16.00
2010,06,13,12,46,16.10
2010,06,13,12,47,16.20
2010,06,13,12,48,16.30
2010,06,13,12,49,16.40
2010,06,13,12,50,16.40
2010,06,13,12,51,16.40
2010,06,13,12,52,16.40
2010,06,13,12,53,16.30
2010,06,13,12,54,16.40
2010,06,13,12,55,16.40
2010,06,13,12,56,16.30
2010,06,13,12,57,16.30
2010,06,13,12,58,16.20
2010,06,13,12,59,16.00
2010,06,13,13,00,15.90
2010,06,13,13,01,15.90
2010,06,13,13,02,15.80
2010,06,13,13,03,15.80
2010,06,13,13,04,15.80
2010,06,13,13,05,15.90
2010,06,13,13,06,15.90
2010,06,13,13,07,15.90
2010,06,13,13,08,15.80
2010,06,13,13,09,15.80
2010,06,13,13,10,15.80
2010,06,13,13,11,15.80
2010,06,13,13,12,15.90
2010,06,13,13,13,15.90
2010,06,13,13,14,16.00
2010,06,13,13,15,16.00
2010,06,13,13,16,16.00
2010,06,13,13,17,15.90
2010,06,13,13,18,15.90
2010,06,13,13,19,15.90
2010,06,13,13,20,15.90
2010,06,13,13,21,15.90
2010,06,13,13,22,15.90
2010,06,13,13,23,15.90
2010,06,13,13,24,15.90
2010,06,13,13,25,15.90
2010,06,13,13,26,15.90
2010,06,13,13,27,16.00
2010,06,13,13,28,16.00
2010,06,13,13,29,16.00
2010,06,13,13,30,16.10
2010,06,13,13,31,16.20
2010,06,13,13,32,16.20
2010,06,13,13,33,16.30
2010,06,13,13,34,16.30
2010,06,13,13,35,16.30
2010,06,13,13,36,16.40
2010,06,13,13,37,16.50
2010,06,13,13,38,16.50
2010,06,13,13,39,16.60
2010,06,13,13,40,16.60
2010,06,13,13,41,16.60
2010,06,13,13,42,16.70
2010,06,13,13,43,16.70
2010,06,13,13,44,16.80
2010,06,13,13,45,16.80
2010,06,13,13,46,16.80
2010,06,13,13,47,16.80
2010,06,13,13,48,16.80
2010,06,13,13,49,16.80
2010,06,13,13,50,16.80
2010,06,13,13,51,16.70
2010,06,13,13,52,16.70
2010,06,13,13,53,16.70
2010,06,13,13,54,16.70
2010,06,13,13,55,16.70
2010,06,13,13,56,16.70
2010,06,13,13,57,16.80
2010,06,13,13,58,16.80
2010,06,13,13,59,16.80
2010,06,13,14,00,16.80
2010,06,13,14,01,16.80
2010,06,13,14,02,16.80
2010,06,13,14,03,16.80
2010,06,13,14,04,16.80
2010,06,13,14,05,16.80
2010,06,13,14,06,16.80
2010,06,13,14,07,16.80
2010,06,13,14,08,16.90
2010,06,13,14,09,16.90
2010,06,13,14,10,16.90
2010,06,13,14,11,17.00
2010,06,13,14,12,17.00
2010,06,13,14,13,17.00
2010,06,13,14,14,16.90
2010,06,13,14,15,16.90
2010,06,13,14,16,16.80
2010,06,13,14,17,16.90
2010,06,13,14,18,16.90
2010,06,13,14,19,16.90
2010,06,13,14,20,16.90
2010,06,13,14,21,17.00
2010,06,13,14,22,17.00
2010,06,13,14,23,17.10
2010,06,13,14,24,17.10
2010,06,13,14,25,17.10
2010,06,13,14,26,17.20
2010,06,13,14,27,17.30
2010,06,13,14,28,17.30
2010,06,13,14,29,17.40
2010,06,13,14,30,17.30
2010,06,13,14,31,17.40
2010,06,13,14,32,17.40
2010,06,13,14,33,17.40
2010,06,13,14,34,17.50
2010,06,13,14,35,17.60
2010,06,13,14,36,17.60
2010,06,13,14,37,17.70
2010,06,13,14,38,17.70
2010,06,13,14,39,17.70
2010,06,13,14,40,17.70
2010,06,13,14,41,17.60
2010,06,13,14,42,17.60
2010,06,13,14,43,17.60
2010,06,13,14,44,17.60
2010,06,13,14,45,17.60
2010,06,13,14,46,17.50
2010,06,13,14,47,17.50
2010,06,13,14,48,17.50
2010,06,13,14,49,17.50
2010,06,13,14,50,17.40
2010,06,13,14,51,17.40
2010,06,13,14,52,17.50
2010,06,13,14,53,17.50
2010,06,13,14,54,17.50
2010,06,13,14,55,17.50
2010,06,13,14,56,17.40
2010,06,13,14,57,17.50
2010,06,13,14,58,17.50
2010,06,13,14,59,17.40
2010,06,13,15,00,17.40
2010,06,13,15,01,17.30
2010,06,13,15,02,17.30
2010,06,13,15,03,17.30
2010,06,13,15,04,17.30
2010,06,13,15,05,17.30
2010,06,13,15,06,17.30
2010,06,13,15,07,17.30
2010,06,13,15,08,17.30
2010,06,13,15,09,17.30
2010,06,13,15,10,17.30
2010,06,13,15,11,17.30
2010,06,13,15,12,17.40
2010,06,13,15,13,17.40
2010,06,13,15,14,17.40
2010,06,13,15,15,17.40
2010,06,13,15,16,17.40
2010,06,13,15,17,17.40
2010,06,13,15,18,17.50
2010,06,13,15,19,17.50
2010,06,13,15,20,17.50
2010,06,13,15,21,17.50
2010,06,13,15,22,17.50
2010,06,13,15,23,17.40
2010,06,13,15,24,17.40
2010,06,13,15,25,17.30
2010,06,13,15,26,17.30
2010,06,13,15,27,17.30
2010,06,13,15,28,17.30
2010,06,13,15,29,17.40
2010,06,13,15,30,17.50
2010,06,13,15,31,17.60
2010,06,13,15,32,17.50
2010,06,13,15,33,17.50
2010,06,13,15,34,17.50
2010,06,13,15,35,17.50
2010,06,13,15,36,17.60
2010,06,13,15,37,17.60
2010,06,13,15,38,17.60
2010,06,13,15,39,17.60
2010,06,13,15,40,17.60
2010,06,13,15,41,17.60
2010,06,13,15,42,17.60
2010,06,13,15,43,17.70
2010,06,13,15,44,17.60
2010,06,13,15,45,17.60
2010,06,13,15,46,17.50
2010,06,13,15,47,17.50
2010,06,13,15,48,17.40
2010,06,13,15,49,17.40
2010,06,13,15,50,17.30
2010,06,13,15,51,17.40
2010,06,13,15,52,17.50
2010,06,13,15,53,17.60
2010,06,13,15,54,17.60
2010,06,13,15,55,17.60
2010,06,13,15,56,17.70
2010,06,13,15,57,17.80
2010,06,13,15,58,17.90
2010,06,13,15,59,18.00
2010,06,13,16,00,17.90
2010,06,13,16,01,17.90
2010,06,13,16,02,17.90
2010,06,13,16,03,17.90
2010,06,13,16,04,17.90
2010,06,13,16,05,17.90
2010,06,13,16,06,17.90
2010,06,13,16,07,17.80
2010,06,13,16,08,17.80
2010,06,13,16,09,17.70
2010,06,13,16,10,17.80
2010,06,13,16,11,17.80
2010,06,13,16,12,17.80
2010,06,13,16,13,17.80
2010,06,13,16,14,17.80
2010,06,13,16,15,17.80
2010,06,13,16,16,17.80
2010,06,13,16,17,17.80
2010,06,13,16,18,17.70
2010,06,13,16,19,17.70
2010,06,13,16,20,17.70
2010,06,13,16,21,17.80
2010,06,13,16,22,17.80
2010,06,13,16,23,17.80
2010,06,13,16,24,17.80
2010,06,13,16,25,17.80
2010,06,13,16,26,17.80
2010,06,13,16,27,17.80
2010,06,13,16,28,17.90
2010,06,13,16,29,18.00
2010,06,13,16,30,18.00
2010,06,13,16,31,18.10
2010,06,13,16,32,18.20
2010,06,13,16,33,18.20
2010,06,13,16,34,18.30
2010,06,13,16,35,18.30
2010,06,13,16,36,18.30
2010,06,13,16,37,18.30
2010,06,13,16,38,18.30
2010,06,13,16,39,18.20
2010,06,13,16,40,18.10
2010,06,13,16,41,18.00
2010,06,13,16,42,17.90
2010,06,13,16,43,17.90
2010,06,13,16,44,17.80
2010,06,13,16,45,17.80
2010,06,13,16,46,17.80
2010,06,13,16,47,17.80
2010,06,13,16,48,17.80
2010,06,13,16,49,17.90
2010,06,13,16,50,17.90
2010,06,13,16,51,17.90
2010,06,13,16,52,17.90
2010,06,13,16,53,17.90
2010,06,13,16,54,17.90
2010,06,13,16,55,17.90
2010,06,13,16,56,18.00
2010,06,13,16,57,18.00
2010,06,13,16,58,18.00
2010,06,13,16,59,18.00
2010,06,13,17,00,18.00
2010,06,13,17,01,18.00
2010,06,13,17,02,18.00
2010,06,13,17,03,17.90
2010,06,13,17,04,17.90
2010,06,13,17,05,17.90
2010,06,13,17,06,17.80
2010,06,13,17,07,17.80
2010,06,13,17,08,17.80
2010,06,13,17,09,17.80
2010,06,13,17,10,17.80
2010,06,13,17,11,17.80
2010,06,13,17,12,17.80
2010,06,13,17,13,17.70
2010,06,13,17,14,17.70
2010,06,13,17,15,17.70
2010,06,13,17,16,17.80
2010,06,13,17,17,17.80
2010,06,13,17,18,17.80
2010,06,13,17,19,17.90
2010,06,13,17,20,17.90
2010,06,13,17,21,17.90
2010,06,13,17,22,17.90
2010,06,13,17,23,17.90
2010,06,13,17,24,17.90
2010,06,13,17,25,17.80
2010,06,13,17,26,17.80
2010,06,13,17,27,17.80
2010,06,13,17,28,17.80
2010,06,13,17,29,17.70
2010,06,13,17,30,17.70
2010,06,13,17,31,17.70
2010,06,13,17,32,17.70
2010,06,13,17,33,17.70
2010,06,13,17,34,17.70
2010,06,13,17,35,17.70
2010,06,13,17,36,17.60
2010,06,13,17,37,17.60
2010,06,13,17,38,17.60
2010,06,13,17,39,17.60
2010,06,13,17,40,17.70
2010,06,13,17,41,17.70
2010,06,13,17,42,17.80
2010,06,13,17,43,17.90
2010,06,13,17,44,17.90
2010,06,13,17,45,18.00
2010,06,13,17,46,18.10
2010,06,13,17,47,18.10
2010,06,13,17,48,18.10
2010,06,13,17,49,18.10
2010,06,13,17,50,18.10
2010,06,13,17,51,18.10
2010,06,13,17,52,18.00
2010,06,13,17,53,18.00
2010,06,13,17,54,17.90
2010,06,13,17,55,17.90
2010,06,13,17,56,17.90
2010,06,13,17,57,17.90
2010,06,13,17,58,17.90
2010,06,13,17,59,18.00
2010,06,13,18,00,18.00
2010,06,13,18,01,18.00
2010,06,13,18,02,18.00
2010,06,13,18,03,17.90
2010,06,13,18,04,17.90
2010,06,13,18,05,17.90
2010,06,13,18,06,18.00
2010,06,13,18,07,17.90
2010,06,13,18,08,17.90
2010,06,13,18,09,17.90
2010,06,13,18,10,17.90
2010,06,13,18,11,17.90
2010,06,13,18,12,17.80
2010,06,13,18,13,17.80
2010,06,13,18,14,17.80
2010,06,13,18,15,17.80
2010,06,13,18,16,17.80
2010,06,13,18,17,17.80
2010,06,13,18,18,17.80
2010,06,13,18,19,17.90
2010,06,13,18,20,17.90
2010,06,13,18,21,18.00
2010,06,13,18,22,18.10
2010,06,13,18,23,18.10
2010,06,13,18,24,18.20
2010,06,13,18,25,18.20
2010,06,13,18,26,18.20
2010,06,13,18,27,18.20
2010,06,13,18,28,18.20
2010,06,13,18,29,18.20
2010,06,13,18,30,18.20
2010,06,13,18,31,18.20
2010,06,13,18,32,18.20
2010,06,13,18,33,18.20
2010,06,13,18,34,18.20
2010,06,13,18,35,18.20
2010,06,13,18,36,18.20
2010,06,13,18,37,18.20
2010,06,13,18,38,18.20
2010,06,13,18,39,18.20
2010,06,13,18,40,18.20
2010,06,13,18,41,18.20
2010,06,13,18,42,18.20
2010,06,13,18,43,18.20
2010,06,13,18,44,18.20
2010,06,13,18,45,18.20
2010,06,13,18,46,18.10
2010,06,13,18,47,18.00
2010,06,13,18,48,17.90
2010,06,13,18,49,17.90
2010,06,13,18,50,17.90
2010,06,13,18,51,18.00
2010,06,13,18,52,18.00
2010,06,13,18,53,18.00
2010,06,13,18,54,18.00
2010,06,13,18,55,17.90
2010,06,13,18,56,17.90
2010,06,13,18,57,17.80
2010,06,13,18,58,17.80
2010,06,13,18,59,17.80
2010,06,13,19,00,17.80
2010,06,13,19,01,17.70
2010,06,13,19,02,17.70
2010,06,13,19,03,17.70
2010,06,13,19,04,17.70
2010,06,13,19,05,17.70
2010,06,13,19,06,17.70
2010,06,13,19,07,17.70
2010,06,13,19,08,17.70
2010,06,13,19,09,17.70
2010,06,13,19,10,17.70
2010,06,13,19,11,17.70
2010,06,13,19,12,17.60
2010,06,13,19,13,17.70
2010,06,13,19,14,17.70
2010,06,13,19,15,17.70
2010,06,13,19,16,17.70
2010,06,13,19,17,17.60
2010,06,13,19,18,17.60
2010,06,13,19,19,17.60
2010,06,13,19,20,17.60
2010,06,13,19,21,17.60
2010,06,13,19,22,17.60
2010,06,13,19,23,17.50
2010,06,13,19,24,17.50
2010,06,13,19,25,17.50
2010,06,13,19,26,17.50
2010,06,13,19,27,17.50
2010,06,13,19,28,17.50
2010,06,13,19,29,17.60
2010,06,13,19,30,17.60
2010,06,13,19,31,17.60
2010,06,13,19,32,17.60
2010,06,13,19,33,17.60
2010,06,13,19,34,17.60
2010,06,13,19,35,17.60
2010,06,13,19,36,17.60
2010,06,13,19,37,17.60
2010,06,13,19,38,17.60
2010,06,13,19,39,17.60
